Tracking 17828 objects as of 31-July-2016
HD Live streaming from Space Station
objects crossing your sky now

SL-16 DEB

Track SL-16 DEB now!
10-day predictions


NORAD ID: 19658
Int'l Code: 1988-102E
Perigee: 846.6 km
Apogee: 1,136.1 km
Inclination: 71.0 °
Period: 104.8 minutes
Semi major axis: 7362 km
RCS: 0.0923 m2 (small)
Launch date: November 23, 1988
Source: Commonwealth of Independent States (former USSR) (CIS)
Launch site: TYURATAM MISSILE AND SPACE COMPLEX (TTMTR)

Note: This is SATELLITE DEBRIS
Your satellite tracking list
Your tracking list is empty





NASA's NSSDC Master Catalog

Two Line Element Set (TLE):
1 19658U 88102E   16211.90202218 -.00000029 +00000-0 +11511-4 0  9998
2 19658 071.0242 346.6245 0196566 116.0991 028.7985 13.74293280387621
Source of the keplerian elements: AFSPC

N2YO: 898